Flight Briefing for CPX786

Departure Arrival
Kingsford Smith International Airport (YSSY)
Click to view FAA NOTAMS
Chek Lap Kok International (VHHH)
Click to view FAA NOTAMS
Departure Time Arrival Time
N/A N/A
Aircraft Distance
B747-400BCF 3997nm
Departure METAR Arrival METAR
YSSY 181530Z 25006KT 9999 VCSH FEW015 SCT030 BKN230 19/19 Q1011 VHHH 181600Z 06005KT 7000 FEW024 22/19 Q1016 NOSIG
Suggested Route
RIC H202 AGETA R340 AMN A461 ZAM A583 SABNO V541 DOVAR V541 BETTY


View recent IFR Routes data
Notes



Charts and Procedures

Charts for YSSY
No chart available
Charts for VHHH
No chart available

Windy.com Weather Map